[[{"header":{"parameterUnit":"m.s-1","parameterCategory":1,"la1":30.2991,"la2":30.254,"lo1":-89.0895,"lo2":-89.0444,"dy":0.0017,"dx":0.0017,"nx":28,"ny":28,"refTime":"2024-06-08T21:00:00:Z","depth":0,"parameterNumber":2,"parameterNumberName":"U-component_of_WINDS"},"data":[0,0,0,0,0,0,0,0,0,0,0,0,0,0,0,0,0,0,0,0,0,0,0,0,0,0,0,0,0,0,0,0,0,0,0,0,0,0,0,0,0,0,0,0,0,0,0,0,0,0,0,0,0,0,0,0,0,0,2.1198,2.1198,0,2.119,2.119,2.119,2.1103,2.1101,2.1098,2.1096,2.1089,2.109,2.1092,0,0,0,0,0,0,0,0,0,0,0,0,0,2.1137,2.1139,2.1198,2.1198,2.1198,2.119,2.119,2.119,2.1103,2.1101,2.1098,2.1095,2.1088,2.109,2.1092,0,0,0,0,0,0,0,0,0,0,0,0,0,2.115,2.114,2.1198,2.1154,2.115,2.119,2.119,2.119,2.1104,2.11,2.1097,2.1094,2.1087,2.109,2.1093,2.1175,0,0,2.1101,2.1102,0,0,0,0,0,0,0,0,2.1149,2.1152,2.116,2.1157,2.1152,2.1144,2.1165,2.1185,2.1105,2.1121,2.1096,2.1093,2.111,2.111,2.1116,2.1175,2.1174,2.1101,2.1103,2.1104,2.1105,0,0,0,0,0,0,0,2.1149,2.1152,2.1195,2.1161,2.1156,2.1134,2.1132,2.1169,2.1134,2.112,2.1113,2.1113,2.1107,2.1114,2.1115,2.1174,2.1101,2.1104,2.1105,2.1106,2.1295,2.1299,0,0,0,0,0,0,2.1154,2.1152,2.1195,2.1195,2.1143,2.1138,2.1135,2.115,2.1133,2.1128,2.1116,2.1109,2.1111,2.1112,2.1115,2.1207,2.1104,2.1107,2.1108,2.1292,2.1296,2.13,0,0,0,0,0,0,2.1153,2.1159,2.1195,2.1172,2.1175,2.1142,2.1159,2.1152,2.1158,2.1131,2.1124,2.113,2.1108,2.1111,2.116,2.1205,2.1108,2.111,2.1288,2.1293,2.1298,2.1394,0,0,0,0,0,0,2.1152,2.1159,2.1191,2.1173,2.1176,2.1242,2.1162,2.1154,2.1163,2.1154,2.1141,2.1136,2.1106,2.1156,2.1162,2.1207,2.1112,2.1284,2.129,2.1296,2.1387,2.1402,2.1415,0,0,0,0,0,2.115,2.1219,2.1193,2.1198,2.1215,2.1244,2.1246,2.1209,2.1167,2.1198,2.118,2.1137,2.12,2.1162,2.1168,2.1215,2.1281,2.1288,2.1296,2.138,2.1399,2.1414,0,0,0,0,0,0,2.1244,2.1216,2.1186,2.1252,2.1251,2.123,2.1268,2.1231,2.1242,2.1233,2.1187,2.1185,2.124,2.1233,2.1191,2.1291,2.1232,2.1242,2.1294,2.1312,2.1326,2.1326,2.1115,0,0,0,0,0,2.1272,2.1299,2.1273,2.1333,2.1334,2.1301,2.1313,2.1284,2.1281,2.1281,2.1266,2.1265,2.1284,2.1298,2.1314,2.1385,2.138,2.142,2.1434,2.1446,2.1454,2.1488,2.1505,2.1325,2.1325,2.1325,0,0,2.1331,2.1319,2.1339,2.1351,2.1347,2.1374,2.1301,2.1334,2.1353,2.1286,2.133,2.1319,2.1315,2.1374,2.14,2.1369,2.1502,2.1456,2.1465,2.1467,2.1497,2.1514,2.1529,2.133,2.1329,2.1328,0,0,2.1452,2.1447,2.1494,2.1491,2.1485,2.1462,2.1474,2.1457,2.1447,2.1491,2.1439,2.1461,2.1496,2.1494,2.1498,2.1614,2.1574,2.1621,2.1694,2.1727,2.1741,2.1753,2.1792,2.1807,2.1629,2.1629,2.163,0,2.1526,2.1565,2.1524,2.1559,2.1564,2.1503,2.155,2.1549,2.1549,2.1554,2.152,2.156,2.1553,2.161,2.1638,2.1644,2.1654,2.1621,2.1743,2.1754,2.1765,2.1802,2.1817,2.1635,2.1634,2.1634,2.1633,0,2.1654,2.1682,2.1721,2.1721,2.1731,2.1773,2.1736,2.1752,2.1722,2.1702,2.1746,2.1735,2.1746,2.1758,2.173,2.181,2.1791,2.1751,2.169,2.1789,2.1822,2.1836,2.1643,2.1641,2.1639,2.1638,0,0,2.1835,2.1809,2.1824,2.1822,2.1809,2.1829,2.1867,2.1877,2.189,2.1892,2.192,2.195,2.1911,2.1915,2.1886,2.1916,2.2005,2.1871,2.187,2.1894,2.2088,2.2117,2.2134,2.1978,2.1981,2.1983,2.2088,0,2.1949,2.201,2.1973,2.204,2.2063,2.2004,2.2035,2.2031,2.2013,2.203,2.201,2.203,2.198,2.1981,2.2008,2.1989,2.2043,2.1981,2.2003,2.2004,2.2004,2.2152,2.2183,2.2282,2.2101,2.2103,2.2105,0,2.209,2.2095,2.2164,2.2144,2.2152,2.2182,2.2186,2.2203,2.2196,2.2181,2.2184,2.2146,2.218,2.2121,2.2166,2.2124,2.2131,2.2122,2.2125,2.2124,2.2059,2.2153,2.2314,2.2328,2.2125,2.2124,2.2122,0,2.2211,2.2236,2.2279,2.2279,2.2258,2.2279,2.2271,2.226,2.2268,2.2272,2.2276,2.2285,2.2289,2.2296,2.2261,2.2222,2.2309,2.2248,2.2296,2.2297,2.2316,2.2314,2.2477,2.2324,2.2324,2.2324,2.2323,0,2.2341,2.2384,2.2333,2.2359,2.2405,2.2362,2.2409,2.2394,2.2385,2.2406,2.2357,2.2378,2.2332,2.2348,2.2322,2.2361,2.2364,2.2351,2.2343,2.2355,2.2356,2.2357,2.2348,2.2327,2.2327,2.2326,2.2325,0,2.2484,2.2451,2.2494,2.2468,2.2463,2.2498,2.2476,2.2499,2.2477,2.2505,2.2509,2.2475,2.2491,2.2457,2.247,2.2452,2.2506,2.2488,2.2508,2.2502,2.255,2.2545,2.2718,2.2737,2.2574,2.2576,2.2577,0,2.2567,2.2599,2.2576,2.2587,2.2581,2.2599,2.2605,2.2563,2.2572,2.2564,2.2587,2.2599,2.2606,2.2635,2.2611,2.262,2.26,2.266,2.2601,2.261,2.2598,2.2595,2.2597,2.2672,2.2674,2.2675,2.2677,0,2.2719,2.27,2.2711,2.2716,2.2724,2.2726,2.2725,2.2736,2.2691,2.2703,2.2718,2.2724,2.2735,2.2747,2.2749,2.274,2.27,2.2696,2.2706,2.2717,2.2726,2.2719,2.2539,2.2692,2.269,2.2689,2.2688,2.2688,2.2832,2.2856,2.2843,2.2856,2.285,2.2849,2.2868,2.2847,2.2859,2.2864,2.2838,2.2859,2.2848,2.2847,2.2842,2.2856,2.2829,2.2846,2.285,2.2854,2.2861,2.2726,2.2857,2.2857,2.2856,2.2856,2.2856,0,2.2978,2.2966,2.2979,2.2976,2.2986,2.2947,2.2943,2.2953,2.2972,2.2965,2.2972,2.2988,2.2999,2.2975,2.2981,2.2997,2.2979,2.3,2.2998,2.2996,2.2886,2.2874,2.3015,2.3015,2.3015,2.3015,2.3015,2.3015,2.3055,2.3092,2.3072,2.3105,2.3092,2.3111,2.3111,2.3109,2.3103,2.3123,2.3131,2.3115,2.31,2.3105,2.3112,2.3105,2.3109,2.3136,2.3122,2.3019,2.3004,2.2989,2.2978,2.3137,2.3138,2.323,2.3231,2.3231]},{"header":{"parameterUnit":"m.s-1","parameterCategory":1,"la1":30.2991,"la2":30.254,"lo1":-89.0895,"lo2":-89.0444,"dy":0.0017,"dx":0.0017,"nx":28,"ny":28,"refTime":"2024-06-08T21:00:00:Z","depth":0,"parameterNumber":3,"parameterNumberName":"V-component_of_WINDS"},"data":[0,0,0,0,0,0,0,0,0,0,0,0,0,0,0,0,0,0,0,0,0,0,0,0,0,0,0,0,0,0,0,0,0,0,0,0,0,0,0,0,0,0,0,0,0,0,0,0,0,0,0,0,0,0,0,0,0,0,1.4971,1.4972,0,1.5133,1.5135,1.5137,1.5172,1.517,1.5169,1.5168,1.5334,1.5339,1.5345,0,0,0,0,0,0,0,0,0,0,0,0,0,1.4689,1.4694,1.4971,1.4973,1.4975,1.5133,1.5135,1.5137,1.5172,1.517,1.5169,1.5168,1.5332,1.5339,1.5345,0,0,0,0,0,0,0,0,0,0,0,0,0,1.4827,1.4696,1.497,1.5011,1.5016,1.5132,1.5135,1.5138,1.5172,1.517,1.5169,1.5167,1.533,1.5338,1.5346,1.5433,0,0,1.5372,1.5375,0,0,0,0,0,0,0,0,1.4819,1.4837,1.5003,1.5008,1.5014,1.513,1.5096,1.5237,1.5173,1.5113,1.5168,1.5166,1.5268,1.5281,1.5315,1.5441,1.5448,1.5372,1.5377,1.5381,1.5383,0,0,0,0,0,0,0,1.481,1.4831,1.5035,1.5005,1.5012,1.5021,1.5038,1.5123,1.5198,1.5118,1.5121,1.514,1.527,1.5307,1.5319,1.545,1.5372,1.5379,1.5385,1.5388,1.5653,1.5655,0,0,0,0,0,0,1.4793,1.4822,1.503,1.504,1.4911,1.5027,1.5047,1.5095,1.5197,1.5211,1.5141,1.5141,1.5294,1.531,1.5325,1.5433,1.5381,1.5389,1.5393,1.5651,1.5654,1.5656,0,0,0,0,0,0,1.4787,1.4811,1.5023,1.4932,1.496,1.5034,1.5087,1.5099,1.5136,1.5215,1.5228,1.5165,1.5293,1.5314,1.5406,1.5439,1.5392,1.54,1.5649,1.5652,1.5655,1.5649,0,0,0,0,0,0,1.4779,1.4809,1.4843,1.4932,1.4964,1.5101,1.509,1.5103,1.515,1.5151,1.5241,1.5254,1.5293,1.5393,1.5414,1.545,1.5406,1.5646,1.565,1.5654,1.5647,1.5652,1.5656,0,0,0,0,0,1.4769,1.4836,1.4845,1.487,1.5009,1.5103,1.5121,1.5165,1.5153,1.5187,1.5238,1.5251,1.5432,1.5402,1.5426,1.5465,1.5644,1.5649,1.5653,1.5644,1.5651,1.5656,0,0,0,0,0,0,1.4749,1.4848,1.486,1.4957,1.5021,1.5109,1.5154,1.5171,1.524,1.5238,1.5289,1.5309,1.5398,1.544,1.5406,1.5553,1.5537,1.5547,1.5522,1.5529,1.5533,1.5521,1.5413,0,0,0,0,0,1.4756,1.4824,1.4907,1.4986,1.5017,1.508,1.5123,1.5151,1.5219,1.5247,1.5304,1.5369,1.5441,1.5487,1.5557,1.5652,1.5672,1.569,1.5695,1.5698,1.5706,1.5759,1.5768,1.5671,1.5671,1.5671,0,0,1.4771,1.4834,1.4874,1.4983,1.5036,1.5105,1.5103,1.5177,1.5228,1.5258,1.5348,1.5392,1.5468,1.5562,1.5606,1.56,1.5737,1.5704,1.5707,1.5713,1.5764,1.5773,1.5781,1.5674,1.5674,1.5673,0,0,1.4835,1.4889,1.496,1.5013,1.5092,1.5133,1.515,1.5235,1.5265,1.5356,1.5379,1.5441,1.5563,1.5616,1.5659,1.574,1.5754,1.5761,1.5786,1.5836,1.5843,1.585,1.5879,1.5888,1.5769,1.5769,1.5769,0,1.4844,1.495,1.4994,1.5067,1.5113,1.5142,1.5214,1.5262,1.5361,1.5392,1.5384,1.5537,1.5591,1.5696,1.5716,1.575,1.577,1.5752,1.5839,1.5846,1.5853,1.5881,1.5892,1.5769,1.5769,1.5769,1.5769,0,1.4957,1.5029,1.5077,1.517,1.5222,1.5294,1.5348,1.5395,1.5418,1.5459,1.555,1.5615,1.5699,1.5725,1.5749,1.5834,1.5828,1.5829,1.5814,1.5862,1.5889,1.59,1.5769,1.5769,1.5769,1.5769,0,0,1.5015,1.513,1.5147,1.5189,1.5278,1.5335,1.5407,1.5488,1.5526,1.5593,1.5654,1.5755,1.5756,1.5805,1.5834,1.5878,1.5936,1.5873,1.5876,1.5883,1.6033,1.6032,1.6044,1.5946,1.5948,1.595,1.6027,0,1.5089,1.5219,1.526,1.5368,1.5435,1.5462,1.5524,1.5585,1.5625,1.5687,1.573,1.5802,1.5797,1.5827,1.5871,1.592,1.5967,1.5915,1.6003,1.6006,1.5984,1.6058,1.6058,1.6128,1.6038,1.6039,1.6041,0,1.5194,1.5261,1.5375,1.5454,1.5484,1.5539,1.5616,1.5675,1.5743,1.5769,1.5822,1.5847,1.5922,1.5902,1.6006,1.5969,1.6007,1.6036,1.604,1.605,1.6027,1.6071,1.6151,1.6162,1.6058,1.6056,1.6055,0,1.5224,1.5343,1.5427,1.5462,1.5556,1.5594,1.5635,1.5702,1.5747,1.5813,1.5843,1.5917,1.5958,1.6015,1.6059,1.604,1.6158,1.6142,1.6181,1.618,1.6206,1.6204,1.6294,1.623,1.6229,1.6229,1.6229,0,1.5304,1.5373,1.5442,1.5493,1.557,1.5616,1.5691,1.5733,1.5792,1.5851,1.5879,1.5934,1.5988,1.605,1.6085,1.6165,1.6183,1.6206,1.6214,1.6204,1.6201,1.623,1.6227,1.6232,1.6231,1.6231,1.623,0,1.5352,1.5401,1.5493,1.5574,1.5595,1.5649,1.5717,1.5768,1.5807,1.5882,1.5902,1.5965,1.6039,1.6088,1.6184,1.6207,1.6294,1.6301,1.6271,1.6275,1.6311,1.6307,1.6424,1.6441,1.6365,1.6365,1.6366,0,1.5399,1.5453,1.5538,1.558,1.562,1.5687,1.5733,1.5779,1.5826,1.5906,1.5947,1.6023,1.6086,1.6203,1.6257,1.6329,1.6339,1.6374,1.635,1.6337,1.6339,1.6336,1.6341,1.6378,1.6379,1.638,1.638,0,1.5479,1.5499,1.5565,1.5638,1.5692,1.5752,1.5812,1.5844,1.59,1.5951,1.6026,1.6075,1.6171,1.6246,1.6323,1.6364,1.6382,1.6387,1.64,1.639,1.637,1.6381,1.6282,1.6384,1.6384,1.6384,1.6383,1.6383,1.5528,1.5576,1.5643,1.5715,1.5764,1.5819,1.587,1.5915,1.5979,1.6061,1.6083,1.6162,1.6228,1.6333,1.6375,1.6437,1.6433,1.6452,1.6457,1.6461,1.6461,1.6359,1.6451,1.6451,1.6451,1.6451,1.6451,0,1.5609,1.5653,1.5717,1.58,1.5855,1.5865,1.5931,1.5977,1.6046,1.6106,1.6167,1.6253,1.6325,1.6383,1.6457,1.6496,1.6505,1.6514,1.6512,1.6521,1.6461,1.6442,1.6505,1.6505,1.6505,1.6505,1.6505,1.6504,1.5657,1.5739,1.5767,1.5873,1.5917,1.5994,1.6031,1.6081,1.6128,1.6223,1.6283,1.632,1.6379,1.6457,1.6523,1.6539,1.6565,1.6571,1.6588,1.6531,1.6525,1.6519,1.6502,1.6576,1.6577,1.6643,1.6644,1.6644]}]]